Cloud_Cover
0 3 0 0 5 65 100 100 100 100 100 74 99 100 100 100 100 100 100 100 100 100 100 90 70 61 81 58 51 32 86 100 100 100 100 82 22 33 84 100 97 78 100 37
0 2 0 0 1 5 82 100 100 100 100 100 100 100 84 15 76 94 82 83 96 83 23 5 5 5 5 7 81 81 87 89 61 12 5 16 83 98 100 100 100 89 16 52
5 2 0 0 23 5 65 100 100 100 100 100 100 100 91 6 5 5 5 20 71 32 14 23 53 47 10 5 5 10 9 26 48 70 99 100 100 100 97 35 9 82 53 3
97 80 1 0 8 58 100 32 83 100 100 100 100 100 100 33 62 6 5 5 5 6 60 33 70 37 5 5 8 45 98 100 100 100 100 100 92 22 18 92 38 2 0 0
5 90 100 100 91 84 11 5 5 63 100 100 100 100 100 100 100 78 18 23 6 35 34 64 8 7 5 23 53 74 92 97 97 93 58 41 67 84 5 4 0 0 0 0
3 6 100 100 100 55 6 5 4 5 34 100 100 100 100 100 100 100 99 89 97 100 100 100 60 88 97 100 100 100 99 100 100 95 62 10 3 0 0 0 0 0 0 0
24 5 19 78 100 31 5 5 2 5 6 42 100 100 100 100 100 100 100 100 100 100 100 100 100 100 100 100 91 65 33 9 5 5 2 0 0 0 0 0 0 3 5 5
4 10 5 5 5 4 0 0 0 5 5 5 13 86 99 100 100 100 100 99 100 100 99 100 88 59 23 16 6 5 1 0 0 0 0 0 0 0 2 5 5 5 4 0
64 5 5 5 0 0 0 0 0 0 5 5 5 5 28 19 45 54 73 92 100 98 63 6 5 5 5 1 0 0 0 0 0 0 0 0 5 5 5 4 1 5 5 0
68 100 7 5 0 0 0 0 0 0 0 1 3 5 5 5 5 21 64 86 46 9 5 4 1 0 0 0 0 0 0 0 1 5 5 5 5 3 2 5 5 5 5 2
100 92 29 5 5 3 0 0 0 0 0 0 0 1 5 5 5 8 9 3 1 0 0 0 0 0 0 0 0 1 7 5 5 5 5 5 5 5 5 5 2 0 0 0
9 5 0 0 0 0 0 0 0 0 0 2 0 5 5 5 3 0 0 0 0 0 0 0 0 0 1 5 24 9 5 13 18 41 88 78 12 5 5 0 0 0 0 0
5 5 5 1 0 0 0 0 2 4 4 4 1 0 0 0 0 0 0 0 0 0 0 1 5 11 8 5 30 66 81 80 74 56 7 5 5 5 5 1 1 0 0 0
55 8 5 4 3 0 0 0 0 0 0 0 0 0 0 0 0 0 0 0 2 5 5 5 5 5 5 7 32 5 5 6 12 6 5 5 5 5 5 1 0 0 0 0
46 23 5 5 5 0 0 0 0 0 0 0 0 0 0 0 0 0 5 5 5 5 5 5 5 5 5 5 5 17 5 5 5 5 5 5 1 0 0 0 0 0 0 0
24 5 5 5 0 0 0 1 2 0 5 5 0 2 5 5 5 5 5 5 5 5 5 5 5 5 5 5 5 5 5 1 0 0 0 0 0 0 0 0 0 0 1 5
5 5 5 4 2 5 5 2 5 5 5 5 5 5 5 6 8 15 11 7 5 5 4 0 0 0 0 0 0 0 0 0 1 4 4 2 0 0 0 0 0 1 5 16
5 5 5 5 5 5 5 5 5 5 5 12 34 61 20 5 4 1 0 0 0 0 0 0 0 0 0 0 8 86 80 100 100 99 62 5 1 0 0 0 2 5 15 96
5 5 5 5 9 5 5 23 37 14 8 5 5 2 0 0 0 0 0 0 0 0 0 0 0 0 4 86 100 100 100 100 100 39 5 1 0 0 0 5 5 12 91 100
27 44 64 100 92 54 17 5 5 1 0 0 0 0 0 0 0 0 0 0 0 0 0 0 0 6 100 100 100 99 37 5 1 0 0 0 0 0 4 5 11 100 100 100
5 9 30 4 2 0 0 0 0 0 0 0 0 0 0 0 0 0 0 3 0 0 0 0 16 99 100 95 16 5 5 4 0 0 1 5 5 1 5 11 99 100 100 100
0 0 0 0 0 0 0 0 0 0 0 0 0 0 0 0 0 0 0 0 0 0 0 7 100 100 99 97 78 25 1 0 0 4 5 5 5 3 5 84 100 100 100 100
0 0 0 0 0 0 0 0 0 0 0 0 0 0 0 0 0 0 0 0 3 0 3 57 96 100 100 20 0 0 5 0 5 5 5 5 5 5 59 100 100 100 100 100
0 0 0 0 0 0 0 0 0 0 0 0 0 0 0 0 0 0 0 0 0 0 11 96 71 14 3 3 4 5 5 5 5 5 63 72 5 27 100 100 100 100 100 100
0 0 0 0 0 0 0 0 0 0 0 0 0 0 0 0 0 0 0 0 0 5 61 62 75 2 0 0 5 5 5 5 5 67 97 55 5 92 100 100 100 100 100 100
0 0 2 0 0 0 0 0 0 0 1 4 0 0 0 5 0 0 0 0 4 5 7 1 0 0 0 0 0 4 5 5 5 82 100 42 87 100 100 100 100 100 100 100